Powrót do katalogu

KUIPER-00085

AktywnyŁącznośćLEO
NORAD 64831·PAYLOAD·🇺🇸 United States

Wystrzelony Jul 16, 2025 z Cape Canaveral Space Force Station

Loading…

Następne Przeloty (najbliższe 24 godziny)

TLE

ŚwieżeSource: CelesTrak SupGP

Epoka: Sep 14, 2026, 14:30 UTC

1 64831C 25151R   26257.60459491  .00004575  00000+0  59903-3 0  2572
2 64831  51.9017 172.8002 0000893  89.4717 184.5298 14.79917039    11

Śledź KUIPER-00085 w czasie rzeczywistym z AllMySat

Download on the App Store